When you browse on this site, cookies collect data to enhance your experience and personalize the content and advertising you see.
Visit our Privacy Policy to learn more. By continuing to use the site, you agree to this use of cookies and data.
  • In Romania
  • List of Countries
  • For 7 days
  • Water Temperature
  • Satellite Maps
  • Weather Map
  • Weather Widgets
  • user-avatar
    Login

    Hourly Weather Manturevo

    Today, 22 April, Monday

    Time Temperature Precipitation Wind Pressure Humidity
    00:00 +6°C° 0 mm 0 mps 756 mmHg 75%
    01:00 +6°C° 0 mm 0 mps 756 mmHg 76%
    02:00 +5°C° 0 mm 0 mps 757 mmHg 78%
    03:00 +5°C° 0 mm 0 mps 757 mmHg 78%
    04:00 +5°C° 0 mm 0 mps 757 mmHg 79%
    05:00 +6°C° 0 mm 1 mps 757 mmHg 80%
    06:00 +8°C° 0 mm 1 mps 757 mmHg 72%
    07:00 +10°C° 0 mm 1 mps 757 mmHg 64%
    08:00 +12°C° 0 mm 1 mps 757 mmHg 56%
    09:00 +13°C° 0 mm 1 mps 757 mmHg 51%
    10:00 +15°C° 0 mm 2 mps 757 mmHg 46%
    11:00 +16°C° 0 mm 2 mps 757 mmHg 41%
    12:00 +16°C° 0 mm 3 mps 757 mmHg 40%
    13:00 +17°C° 0 mm 3 mps 757 mmHg 38%
    14:00 +17°C° 0 mm 3 mps 756 mmHg 36%
    15:00 +17°C° 0 mm 3 mps 756 mmHg 39%
    16:00 +17°C° 0 mm 2 mps 756 mmHg 41%
    17:00 +16°C° 0 mm 2 mps 755 mmHg 43%
    18:00 +14°C° 0 mm 2 mps 756 mmHg 50%
    19:00 +12°C° 0 mm 2 mps 756 mmHg 56%
    20:00 +9°C° 0 mm 2 mps 756 mmHg 62%
    21:00 +9°C° 0 mm 2 mps 756 mmHg 64%
    22:00 +9°C° 0 mm 2 mps 756 mmHg 65%
    23:00 +8°C° 0 mm 2 mps 756 mmHg 67%

    Tomorrow, 23 April, Tuesday

    Time Temperature Precipitation Wind Pressure Humidity
    00:00 +8°C° 0 mm 2 mps 756 mmHg 68%
    01:00 +8°C° 0 mm 2 mps 756 mmHg 70%
    02:00 +8°C° 0 mm 2 mps 756 mmHg 71%
    03:00 +8°C° 0 mm 2 mps 757 mmHg 72%
    04:00 +8°C° 0 mm 2 mps 757 mmHg 72%
    05:00 +8°C° 0 mm 3 mps 757 mmHg 72%
    06:00 +9°C° 0 mm 3 mps 757 mmHg 68%
    07:00 +10°C° 0 mm 3 mps 757 mmHg 64%
    08:00 +11°C° 0 mm 4 mps 757 mmHg 60%
    09:00 +12°C° 0 mm 3 mps 757 mmHg 57%
    10:00 +12°C° 0 mm 3 mps 757 mmHg 55%
    11:00 +13°C° 0 mm 3 mps 757 mmHg 53%
    12:00 +14°C° 0 mm 4 mps 757 mmHg 48%
    13:00 +17°C° 0 mm 4 mps 756 mmHg 43%
    14:00 +18°C° 0 mm 4 mps 756 mmHg 38%
    15:00 +18°C° 0 mm 4 mps 756 mmHg 40%
    16:00 +18°C° 0 mm 3 mps 756 mmHg 42%
    17:00 +17°C° 0 mm 3 mps 755 mmHg 44%
    18:00 +16°C° 0 mm 3 mps 756 mmHg 51%
    19:00 +13°C° 0 mm 3 mps 756 mmHg 57%
    20:00 +12°C° 0 mm 2 mps 756 mmHg 64%
    21:00 +10°C° 0 mm 2 mps 756 mmHg 67%
    22:00 +10°C° 0 mm 2 mps 756 mmHg 70%
    23:00 +9°C° 0 mm 2 mps 756 mmHg 73%

    Day after tomorrow, 24 April, Wednesday

    Time Temperature Precipitation Wind Pressure Humidity
    00:00 +9°C° 0 mm 2 mps 756 mmHg 75%
    01:00 +8°C° 0 mm 2 mps 757 mmHg 76%
    02:00 +8°C° 0 mm 2 mps 757 mmHg 78%
    03:00 +7°C° 0 mm 2 mps 757 mmHg 79%
    04:00 +7°C° 0 mm 2 mps 757 mmHg 80%
    05:00 +7°C° 0 mm 2 mps 757 mmHg 81%
    06:00 +9°C° 0 mm 3 mps 757 mmHg 75%
    07:00 +11°C° 0 mm 3 mps 757 mmHg 68%
    08:00 +12°C° 0 mm 3 mps 757 mmHg 62%
    09:00 +14°C° 0 mm 3 mps 757 mmHg 56%
    10:00 +17°C° 0 mm 3 mps 757 mmHg 50%
    11:00 +19°C° 0 mm 4 mps 757 mmHg 44%
    12:00 +19°C° 0 mm 4 mps 757 mmHg 42%
    13:00 +20°C° 0 mm 4 mps 757 mmHg 41%
    14:00 +21°C° 0 mm 4 mps 757 mmHg 39%
    15:00 +20°C° 0 mm 3 mps 757 mmHg 42%
    16:00 +20°C° 0 mm 3 mps 757 mmHg 44%
    17:00 +19°C° 0 mm 2 mps 756 mmHg 47%
    18:00 +17°C° 0 mm 2 mps 757 mmHg 54%
    19:00 +15°C° 0 mm 2 mps 757 mmHg 62%
    20:00 +13°C° 0 mm 2 mps 757 mmHg 69%
    21:00 +12°C° 0 mm 2 mps 757 mmHg 70%
    22:00 +11°C° 0 mm 1 mps 757 mmHg 72%
    23:00 +10°C° 0 mm 1 mps 757 mmHg 73%

    25 April, Thursday

    Time Temperature Precipitation Wind Pressure Humidity
    00:00 +10°C° 0 mm 1 mps 758 mmHg 72%
    01:00 +9°C° 0 mm 1 mps 758 mmHg 71%
    02:00 +8°C° 0 mm 1 mps 758 mmHg 70%
    03:00 +8°C° 0 mm 1 mps 758 mmHg 69%
    04:00 +8°C° 0 mm 1 mps 758 mmHg 67%
    05:00 +8°C° 0 mm 1 mps 758 mmHg 66%
    06:00 +10°C° 0 mm 1 mps 758 mmHg 59%
    07:00 +12°C° 0 mm 1 mps 758 mmHg 53%
    08:00 +15°C° 0 mm 1 mps 758 mmHg 46%
    09:00 +16°C° 0 mm 1 mps 758 mmHg 42%
    10:00 +18°C° 0 mm 2 mps 758 mmHg 39%
    11:00 +20°C° 0 mm 2 mps 758 mmHg 36%
    12:00 +20°C° 0 mm 2 mps 758 mmHg 35%
    13:00 +21°C° 0 mm 2 mps 757 mmHg 34%
    14:00 +21°C° 0 mm 2 mps 757 mmHg 33%
    15:00 +22°C° 0 mm 1 mps 756 mmHg 36%
    16:00 +22°C° 0 mm 1 mps 756 mmHg 39%
    17:00 +22°C° 0 mm 1 mps 755 mmHg 41%
    18:00 +20°C° 0 mm 1 mps 755 mmHg 47%
    19:00 +18°C° 0 mm 1 mps 755 mmHg 52%
    20:00 +15°C° 0 mm 1 mps 755 mmHg 57%
    21:00 +14°C° 0 mm 1 mps 754 mmHg 59%
    22:00 +14°C° 0 mm 2 mps 754 mmHg 61%
    23:00 +13°C° 0 mm 2 mps 754 mmHg 63%

    26 April, Friday

    Time Temperature Precipitation Wind Pressure Humidity
    00:00 +13°C° 0 mm 2 mps 754 mmHg 66%
    01:00 +12°C° 0 mm 2 mps 754 mmHg 70%
    02:00 +12°C° 0 mm 2 mps 754 mmHg 73%
    03:00 +10°C° 0 mm 2 mps 753 mmHg 74%
    04:00 +10°C° 0 mm 2 mps 753 mmHg 75%
    05:00 +10°C° 0 mm 2 mps 753 mmHg 75%
    06:00 +13°C° 0 mm 2 mps 752 mmHg 67%
    07:00 +14°C° 0 mm 3 mps 752 mmHg 59%
    08:00 +17°C° 0 mm 3 mps 752 mmHg 51%
    09:00 +18°C° 0 mm 4 mps 751 mmHg 46%
    10:00 +19°C° 0 mm 4 mps 751 mmHg 41%
    11:00 +20°C° 0 mm 5 mps 750 mmHg 36%
    12:00 +21°C° 0 mm 5 mps 749 mmHg 35%
    13:00 +21°C° 0 mm 5 mps 749 mmHg 34%
    14:00 +22°C° 0 mm 5 mps 748 mmHg 33%
    15:00 +21°C° 0 mm 5 mps 748 mmHg 35%
    16:00 +21°C° 0 mm 4 mps 747 mmHg 38%
    17:00 +21°C° 0 mm 4 mps 747 mmHg 40%
    18:00 +19°C° 0 mm 3 mps 747 mmHg 46%
    19:00 +17°C° 0 mm 3 mps 747 mmHg 51%
    20:00 +16°C° 0 mm 3 mps 747 mmHg 57%
    21:00 +14°C° 0 mm 3 mps 747 mmHg 62%
    22:00 +14°C° 0 mm 3 mps 747 mmHg 68%
    23:00 +13°C° 0 mm 3 mps 747 mmHg 73%

    27 April, Saturday

    Time Temperature Precipitation Wind Pressure Humidity
    00:00 +12°C° 0 mm 3 mps 748 mmHg 77%
    01:00 +11°C° 0 mm 3 mps 748 mmHg 80%
    02:00 +10°C° 0 mm 4 mps 749 mmHg 83%
    03:00 +9°C° 0 mm 3 mps 749 mmHg 84%
    04:00 +7°C° 0 mm 3 mps 750 mmHg 84%
    05:00 +5°C° 0 mm 3 mps 751 mmHg 85%
    06:00 +7°C° 0 mm 3 mps 751 mmHg 77%
    07:00 +7°C° 0 mm 3 mps 752 mmHg 69%
    08:00 +8°C° 0 mm 3 mps 752 mmHg 61%
    09:00 +9°C° 0 mm 3 mps 752 mmHg 54%
    10:00 +10°C° 0 mm 2 mps 753 mmHg 47%
    11:00 +13°C° 0 mm 2 mps 753 mmHg 40%
    12:00 +13°C° 0 mm 2 mps 753 mmHg 37%
    13:00 +14°C° 0 mm 2 mps 753 mmHg 33%
    14:00 +15°C° 0 mm 2 mps 753 mmHg 30%
    15:00 +15°C° 0 mm 2 mps 753 mmHg 31%
    16:00 +15°C° 0 mm 2 mps 753 mmHg 32%
    17:00 +14°C° 0 mm 1 mps 753 mmHg 33%
    18:00 +12°C° 0 mm 1 mps 753 mmHg 39%
    19:00 +11°C° 0 mm 1 mps 753 mmHg 46%
    20:00 +9°C° 0 mm 1 mps 753 mmHg 52%
    21:00 +8°C° 0 mm 1 mps 753 mmHg 55%
    22:00 +7°C° 0 mm 1 mps 753 mmHg 58%
    23:00 +6°C° 0 mm 1 mps 753 mmHg 61%
    Show more